Date_and_time,latitude,longitude,wind_speed,RelWindDirFrom,WindDirFrom,air_pressure,air_temperature,relative_humidity,Temp,platform_speed_wrt_ground,air_pressure_at_mean_sea_level,platform_orientation
2018-11-03 23:40,50.6304533333333,-96.9807716666667,4.6,7.5,37,996.85,0.0,63,3.53,0.0,1024.97,90.0
2018-11-03 23:50,50.6304533333333,-96.9807533333333,3.6,5.4,19,996.94,0.0,63,3.53,0.0,1025.06,90.0
2018-11-04 00:00,50.6304583333333,-96.98077,2.9,4.8,29,996.95,0.1,63,3.53,0.0,1025.07,360.0
2018-11-04 00:00,50.6304583333333,-96.98077,4.7,4.7,59,996.91,0.2,63,3.53,0.0,1025.02,38.0
2018-11-04 00:10,50.6304633333333,-96.98077,3.5,5.6,25,996.92,0.1,65,3.52,0.0,1025.04,38.0
2018-11-04 00:20,50.6304583333333,-96.9807683333333,3.3,4.7,338,996.96,0.0,65,3.52,0.0,1025.08,38.0
2018-11-04 00:30,50.6304583333333,-96.98077,4.0,5.7,5,996.87,0.1,64,3.52,0.0,1024.99,38.0
2018-11-04 00:40,50.6304566666667,-96.98077,3.6,5.3,1,996.82,0.2,65,3.52,0.0,1024.93,38.0
2018-11-04 00:50,50.630445,-96.9807816666667,3.6,5.3,7,996.84,0.2,65,3.50,0.0,1024.95,38.0
2018-11-04 01:00,50.630455,-96.9807733333333,3.3,5.3,341,996.84,0.2,65,3.49,0.0,1024.95,270.0
2018-11-04 01:10,50.630445,-96.9807816666667,3.4,5.2,343,996.83,0.2,65,3.48,0.0,1024.94,270.0
2018-11-04 01:20,50.6304483333333,-96.9807766666667,2.6,5.2,332,996.84,0.1,64,3.48,0.0,1024.95,270.0
2018-11-04 01:30,50.6304516666667,-96.9807783333333,1.5,2.6,332,996.79,0.1,63,3.47,0.0,1024.90,270.0
2018-11-04 01:40,50.63045,-96.9807783333333,0.7,1.6,320,996.77,0.0,64,3.47,0.0,1024.88,270.0
2018-11-04 01:50,50.6304516666667,-96.9807766666667,0.4,2.2,208,996.72,-0.0,65,3.47,0.0,1024.83,270.0
2018-11-04 02:00,50.6304583333333,-96.9807666666667,2.4,2.9,215,996.71,-0.4,69,3.47,0.0,1024.84,0.0
2018-11-04 02:10,50.63046,-96.980775,1.8,2.4,228,996.72,-0.5,71,3.47,0.0,1024.86,0.0
2018-11-04 02:20,50.6304566666667,-96.9807733333333,1.5,2.0,235,996.71,-0.6,71,3.47,0.0,1024.85,0.0
2018-11-04 02:30,50.630455,-96.9807716666667,1.4,2.1,247,996.75,-0.6,70,3.47,0.0,1024.88,0.0
2018-11-04 02:40,50.630455,-96.9807716666667,1.6,2.6,258,996.77,-0.5,71,3.47,0.0,1024.89,0.0
2018-11-04 02:50,50.630455,-96.9807683333333,0.6,2.1,252,996.71,-0.6,70,3.47,0.0,1024.84,0.0
2018-11-04 03:00,50.6304533333333,-96.9807666666667,2.3,3.7,263,996.71,-0.6,72,3.47,0.0,1024.84,360.0
2018-11-04 03:10,50.6304533333333,-96.9807616666667,2.1,3.4,269,996.67,-0.7,73,3.47,0.0,1024.82,360.0
2018-11-04 03:20,50.63046,-96.9807633333333,1.2,2.1,272,996.60,-0.8,75,3.45,0.0,1024.74,360.0
2018-11-04 03:30,50.6304616666667,-96.980765,0.6,1.4,266,996.58,-0.9,74,3.45,0.0,1024.73,360.0
2018-11-04 03:40,50.6304533333333,-96.980755,0.0,0.0,0,996.55,-0.9,73,3.42,0.0,1024.71,360.0
2018-11-04 03:50,50.6304533333333,-96.980765,0.3,2.1,193,996.47,-0.9,75,3.40,0.0,1024.65,360.0
2018-11-04 04:00,50.6304566666667,-96.9807633333333,1.7,2.4,184,996.43,-1.2,88,3.38,0.0,1024.62,90.0
2018-11-04 04:10,50.63046,-96.9807633333333,1.2,2.0,191,996.49,-1.4,87,3.37,0.0,1024.70,90.0
2018-11-04 04:20,50.63046,-96.980765,1.8,2.7,188,996.47,-1.5,85,3.37,0.0,1024.69,90.0
2018-11-04 04:30,50.6304616666667,-96.9807666666667,2.3,3.0,185,996.44,-1.6,81,3.36,0.0,1024.66,90.0
2018-11-04 04:40,50.6304616666667,-96.98077,2.3,3.0,184,996.39,-1.7,80,3.36,0.0,1024.61,90.0
2018-11-04 04:50,50.6304616666667,-96.9807683333333,2.0,3.4,187,996.37,-1.8,83,3.36,0.0,1024.60,90.0
2018-11-04 05:00,50.630445,-96.98077,2.4,3.6,195,996.38,-1.7,84,3.36,0.0,1024.60,360.0
2018-11-04 05:10,50.6304516666667,-96.980775,2.3,4.4,197,996.30,-1.9,83,3.35,0.0,1024.54,360.0
2018-11-04 05:20,50.6304533333333,-96.9807783333333,3.8,5.0,188,996.20,-1.9,85,3.35,0.0,1024.44,360.0
2018-11-04 05:30,50.6304533333333,-96.9807766666667,4.4,6.0,178,996.06,-1.7,88,3.35,0.0,1024.29,360.0
2018-11-04 05:40,50.6304533333333,-96.9807716666667,4.7,5.8,175,995.95,-1.7,90,3.36,0.0,1024.17,360.0
2018-11-04 05:50,50.6304533333333,-96.9807716666667,5.6,7.4,174,995.89,-1.7,91,3.36,0.0,1024.13,360.0
2018-11-04 06:00,50.6304533333333,-96.9807716666667,6.1,7.3,174,995.78,-1.4,90,3.37,0.0,1024.01,270.0
2018-11-04 06:10,50.6304533333333,-96.98077,6.0,8.2,172,995.72,-1.2,88,3.36,0.0,1023.94,270.0
2018-11-04 06:20,50.6304516666667,-96.9807683333333,6.3,8.9,178,995.67,-0.9,85,3.32,0.0,1023.89,270.0
2018-11-04 06:30,50.6304516666667,-96.9807683333333,6.6,8.4,175,995.61,-1.0,85,3.22,0.0,1023.83,270.0
2018-11-04 06:40,50.6304516666667,-96.98077,6.7,8.3,172,995.63,-1.0,85,3.14,0.0,1023.86,270.0
2018-11-04 06:50,50.6304516666667,-96.98077,7.1,9.0,169,995.57,-0.9,84,3.10,0.0,1023.79,270.0
2018-11-04 07:00,50.6304516666667,-96.98077,7.8,11.5,162,995.41,-0.5,82,3.03,0.0,1023.61,90.0
2018-11-04 07:10,50.6304516666667,-96.98077,7.8,11.6,163,995.40,-0.3,81,3.00,0.0,1023.59,90.0
2018-11-04 07:20,50.63045,-96.98077,7.5,11.5,169,995.33,-0.5,82,2.98,0.0,1023.52,90.0
2018-11-04 07:30,50.63045,-96.98077,7.3,10.6,172,995.27,-0.7,83,2.95,0.0,1023.47,90.0
2018-11-04 07:40,50.63045,-96.98077,6.9,9.0,174,995.17,-0.9,84,2.93,0.0,1023.38,90.0
2018-11-04 07:50,50.63045,-96.98077,6.2,7.9,181,995.21,-1.2,86,2.93,0.0,1023.42,90.0
2018-11-04 08:00,50.63045,-96.98077,5.2,7.2,190,995.21,-1.4,87,2.94,0.0,1023.41,360.0
2018-11-04 08:10,50.63045,-96.98077,4.7,6.2,188,995.05,-1.6,86,2.96,0.0,1023.25,360.0
2018-11-04 08:20,50.63045,-96.98077,5.3,6.9,183,994.97,-1.8,87,2.97,0.0,1023.18,360.0
2018-11-04 08:30,50.63045,-96.98077,5.7,7.5,179,994.82,-1.9,86,2.97,0.0,1023.03,360.0
2018-11-04 08:40,50.63045,-96.98077,6.3,7.8,174,994.71,-1.8,89,2.94,0.0,1022.91,360.0
2018-11-04 08:50,50.63045,-96.98077,6.0,7.1,177,994.70,-1.6,91,2.94,0.0,1022.87,360.0
2018-11-04 09:00,50.6304516666667,-96.98077,5.6,6.6,178,994.53,-1.5,92,2.95,0.0,1022.68,90.0
2018-11-04 09:10,50.6304516666667,-96.98077,6.6,8.1,180,994.38,-1.4,93,2.96,0.0,1022.52,90.0
2018-11-04 09:20,50.6304516666667,-96.98077,7.3,8.9,178,994.19,-1.4,92,2.96,0.0,1022.34,90.0
2018-11-04 09:30,50.6304516666667,-96.98077,7.5,9.0,180,994.09,-1.4,92,2.96,0.0,1022.25,90.0
2018-11-04 09:40,50.6304683333333,-96.9807533333333,7.4,8.5,181,994.03,-1.4,92,2.96,0.0,1022.20,90.0
2018-11-04 09:50,50.6304433333333,-96.9807733333333,7.2,8.3,175,993.85,-1.3,94,2.96,0.0,1022.03,90.0
2018-11-04 10:00,50.6304516666667,-96.9807716666667,7.0,8.2,174,993.74,-1.3,96,2.96,0.0,1021.92,270.0
2018-11-04 10:10,50.6304466666667,-96.9807366666667,6.9,8.5,170,993.63,-1.1,99,2.96,0.0,1021.81,270.0
2018-11-04 10:20,50.6304633333333,-96.980775,7.4,9.3,171,993.53,-0.7,99,2.97,0.0,1021.69,270.0
2018-11-04 10:30,50.6304466666667,-96.980765,7.1,9.9,178,993.40,-0.5,99,2.97,0.0,1021.54,270.0
2018-11-04 10:40,50.63045,-96.98077,9.4,11.7,175,993.23,-0.4,96,2.97,0.0,1021.35,270.0
2018-11-04 10:50,50.6304516666667,-96.98077,9.8,11.6,175,993.09,-0.6,93,2.98,0.0,1021.21,270.0
2018-11-04 11:00,50.6304716666667,-96.980775,9.8,11.9,173,992.91,-0.8,93,2.98,0.0,1021.04,360.0
2018-11-04 11:10,50.630465,-96.9807766666667,10.5,13.9,171,992.71,-0.7,95,2.98,0.0,1020.82,360.0
2018-11-04 11:20,50.6304633333333,-96.9807783333333,12.5,15.3,168,992.51,-0.6,94,2.97,0.0,1020.60,360.0
2018-11-04 11:30,50.630465,-96.9807866666667,13.6,15.8,167,992.32,-0.4,95,2.97,0.0,1020.40,360.0
2018-11-04 11:40,50.630455,-96.9807783333333,13.4,16.1,166,992.22,-0.2,96,2.97,0.0,1020.29,360.0
2018-11-04 11:50,50.6304583333333,-96.9807683333333,14.6,18.3,165,992.03,-0.2,96,2.98,0.0,1020.09,360.0
2018-11-04 12:00,50.6304616666667,-96.9807666666667,14.3,16.9,166,991.81,-0.2,97,3.01,0.0,1019.86,360.0
2018-11-04 12:10,50.6304616666667,-96.980765,14.6,17.7,166,991.57,-0.2,97,3.03,0.0,1019.59,360.0
2018-11-04 12:20,50.63046,-96.980765,14.6,17.6,166,991.49,-0.2,97,3.03,0.0,1019.48,360.0
2018-11-04 12:30,50.6304666666667,-96.9807616666667,13.0,16.9,170,991.46,-0.2,97,3.04,0.0,1019.46,360.0
2018-11-04 12:40,50.630465,-96.9807683333333,11.6,14.3,170,991.40,-0.4,99,3.04,0.0,1019.42,360.0
2018-11-04 12:50,50.63046,-96.9807683333333,10.7,13.2,170,991.37,-0.5,99,3.03,0.0,1019.40,360.0
2018-11-04 13:00,50.63046,-96.9807716666667,10.5,12.5,170,991.30,-0.6,99,3.03,0.0,1019.33,38.0
2018-11-04 13:10,50.63046,-96.9807716666667,11.0,13.8,167,991.14,-0.6,99,3.03,0.0,1019.16,38.0
2018-11-04 13:20,50.63046,-96.9807716666667,10.1,12.5,167,991.08,-0.6,99,3.02,0.0,1019.08,38.0
2018-11-04 13:30,50.63046,-96.98077,9.8,11.6,170,991.07,-0.7,99,3.00,0.0,1019.07,38.0
2018-11-04 13:40,50.63046,-96.98077,9.7,12.3,172,991.12,-0.8,99,2.99,0.0,1019.13,38.0
2018-11-04 13:50,50.6304616666667,-96.9807783333333,8.1,10.9,176,991.22,-0.9,99,2.97,0.0,1019.23,38.0
2018-11-04 14:00,50.6304616666667,-96.9807733333333,8.2,12.1,171,991.17,-0.9,99,2.96,0.0,1019.18,360.0
2018-11-04 14:10,50.6304616666667,-96.9807733333333,8.2,11.3,173,991.18,-0.9,99,2.95,0.0,1019.19,360.0
2018-11-04 14:20,50.6304566666667,-96.98075,10.8,15.2,162,991.07,-0.8,99,2.94,0.0,1019.07,360.0
2018-11-04 14:30,50.630455,-96.98077,10.9,14.3,165,991.04,-0.6,98,2.93,0.0,1019.05,360.0
2018-11-04 14:40,50.63046,-96.9807716666667,9.6,11.9,168,990.96,-0.7,97,2.93,0.0,1018.97,360.0
2018-11-04 14:50,50.6304633333333,-96.9807733333333,9.0,11.8,167,990.85,-0.7,96,2.93,0.0,1018.87,360.0
2018-11-04 15:00,50.6304566666667,-96.98077,9.0,11.2,169,990.75,-0.5,94,2.93,0.0,1018.75,360.0
2018-11-04 15:10,50.6304683333333,-96.98078,9.3,12.1,167,990.64,-0.3,91,2.93,0.0,1018.63,360.0
2018-11-04 15:20,50.630455,-96.98076,11.1,15.8,163,990.43,-0.2,90,2.93,0.0,1018.41,360.0
2018-11-04 15:30,50.6304583333333,-96.9807566666667,12.8,15.9,164,990.24,-0.2,89,2.92,0.0,1018.22,360.0
2018-11-04 15:40,50.6304583333333,-96.9807566666667,13.2,16.6,164,990.07,-0.1,86,2.93,0.0,1018.04,360.0
2018-11-04 15:50,50.6304566666667,-96.980755,13.5,16.5,164,989.97,0.1,86,2.94,0.0,1017.94,360.0
2018-11-04 16:00,50.6304566666667,-96.980765,13.3,16.8,162,989.83,0.2,84,2.95,0.0,1017.78,167.4
2018-11-04 16:10,50.6304583333333,-96.9807683333333,12.9,16.0,159,989.72,0.2,86,2.95,0.0,1017.67,167.4
2018-11-04 16:20,50.6304583333333,-96.9807733333333,13.7,17.1,159,989.55,0.2,86,2.95,0.0,1017.49,167.4
2018-11-04 16:30,50.6304566666667,-96.9807733333333,13.7,17.7,154,989.35,0.4,86,2.95,0.0,1017.27,167.4
2018-11-04 16:40,50.630455,-96.9807716666667,14.1,18.0,152,989.17,0.6,86,2.95,0.0,1017.08,167.4
2018-11-04 16:50,50.630455,-96.9807733333333,14.0,17.9,155,989.10,0.9,85,2.96,0.0,1016.98,167.4
2018-11-04 17:00,50.630455,-96.9807733333333,14.8,19.1,154,988.91,1.0,83,2.97,0.0,1016.76,360.0
2018-11-04 17:10,50.6304566666667,-96.9807733333333,15.6,19.3,151,988.70,1.2,83,2.99,0.0,1016.54,360.0
2018-11-04 17:20,50.6304583333333,-96.9807733333333,15.4,19.2,150,988.46,1.4,83,3.00,0.0,1016.28,360.0
2018-11-04 17:30,50.6304583333333,-96.9807716666667,15.6,19.2,150,988.27,1.6,82,3.00,0.0,1016.07,360.0
2018-11-04 17:40,50.6304583333333,-96.9807716666667,14.3,17.2,150,988.07,1.7,83,3.01,0.0,1015.84,360.0
2018-11-04 17:50,50.6304566666667,-96.9807716666667,14.7,17.5,149,987.82,1.9,82,3.02,0.0,1015.58,360.0
2018-11-04 18:00,50.6304566666667,-96.9807716666667,14.1,16.8,147,987.68,2.2,82,3.04,0.0,1015.41,270.0
2018-11-04 18:10,50.6304466666667,-96.9807716666667,14.2,16.9,147,987.44,2.4,80,3.04,0.0,1015.16,270.0
2018-11-04 18:20,50.63045,-96.9807683333333,14.2,16.8,142,987.14,2.6,81,3.07,0.0,1014.83,270.0
2018-11-04 18:30,50.6304316666667,-96.9807533333333,12.7,15.0,143,987.12,2.5,83,3.09,0.0,1014.80,270.0
2018-11-04 18:40,50.63044,-96.9807633333333,12.3,14.4,143,986.98,2.3,83,3.11,0.0,1014.66,270.0
2018-11-04 18:50,50.6304416666667,-96.980765,11.5,13.9,145,986.88,2.5,83,3.12,0.0,1014.54,270.0
2018-11-04 19:00,50.63044,-96.9807666666667,12.2,16.1,154,986.86,2.7,81,3.14,0.0,1014.49,142.0
2018-11-04 19:10,50.63044,-96.9807683333333,14.1,19.9,159,986.64,3.0,80,3.14,0.0,1014.24,142.0
2018-11-04 19:20,50.6304416666667,-96.9807683333333,12.0,14.0,149,986.51,2.8,85,3.13,0.0,1014.10,142.0
2018-11-04 19:30,50.6304416666667,-96.9807683333333,10.8,13.5,153,986.33,2.8,86,3.13,0.0,1013.91,142.0
2018-11-04 19:40,50.6304416666667,-96.98077,12.0,15.1,160,986.22,2.9,82,3.16,0.0,1013.78,142.0
2018-11-04 19:50,50.6304416666667,-96.9807716666667,10.4,13.4,158,986.36,2.9,83,3.16,0.0,1013.92,142.0
2018-11-04 20:00,50.6304416666667,-96.9807716666667,10.2,12.7,160,986.45,2.9,84,3.14,0.0,1014.00,360.0
2018-11-04 20:10,50.6304416666667,-96.9807733333333,9.6,12.0,161,986.32,2.9,83,3.15,0.0,1013.86,360.0
2018-11-04 20:20,50.6304433333333,-96.9807716666667,9.4,11.1,162,986.24,3.0,81,3.16,0.0,1013.78,360.0
2018-11-04 20:30,50.6304433333333,-96.9807716666667,8.1,10.5,161,986.12,3.0,82,3.14,0.0,1013.66,360.0
2018-11-04 20:40,50.6304433333333,-96.9807716666667,7.2,9.3,152,985.96,2.9,85,3.12,0.0,1013.50,360.0
2018-11-04 20:50,50.6304433333333,-96.98077,7.2,9.1,152,985.71,2.8,86,3.11,0.0,1013.23,360.0
2018-11-04 21:00,50.6304433333333,-96.98077,7.6,8.8,146,985.62,2.8,88,3.12,0.0,1013.13,165.5
2018-11-04 21:10,50.6304433333333,-96.9807683333333,7.3,8.8,146,985.49,2.9,88,3.12,0.0,1013.00,165.5
2018-11-04 21:20,50.6304433333333,-96.98077,8.0,9.3,147,985.35,3.0,85,3.14,0.0,1012.84,165.5
2018-11-04 21:30,50.6304433333333,-96.98077,8.0,9.5,142,985.20,3.0,87,3.15,0.0,1012.68,165.5
2018-11-04 21:40,50.6304433333333,-96.98077,7.8,10.3,129,984.98,3.5,87,3.15,0.0,1012.43,165.5
2018-11-04 21:50,50.630445,-96.98077,9.0,11.4,126,984.82,3.7,89,3.16,0.0,1012.27,165.5
2018-11-04 22:00,50.630445,-96.9807683333333,8.7,10.0,125,984.78,3.7,92,3.16,0.0,1012.22,90.0
2018-11-04 22:10,50.63041,-96.9807633333333,9.0,11.1,126,984.60,3.7,90,3.17,0.0,1012.03,90.0
2018-11-04 22:20,50.6304333333333,-96.98076,10.2,11.5,122,984.37,3.8,91,3.18,0.0,1011.79,90.0
2018-11-04 22:30,50.6304416666667,-96.9807666666667,10.0,12.0,122,984.23,3.7,94,3.19,0.0,1011.66,90.0
2018-11-04 22:40,50.6304416666667,-96.9807666666667,11.4,13.3,125,984.15,3.9,93,3.19,0.0,1011.57,90.0
2018-11-04 22:50,50.6304433333333,-96.980765,12.2,13.9,120,984.00,3.9,92,3.19,0.0,1011.41,90.0
2018-11-04 23:00,50.6304433333333,-96.980765,11.6,13.6,118,983.98,3.9,93,3.21,0.0,1011.39,90.0
2018-11-04 23:10,50.630445,-96.9807666666667,11.2,13.3,119,984.02,3.9,94,3.21,0.0,1011.43,90.0
2018-11-04 23:20,50.6304466666667,-96.9807666666667,12.1,14.4,122,984.02,4.0,89,3.21,0.0,1011.42,90.0
2018-11-04 23:30,50.6304466666667,-96.9807666666667,11.9,14.0,123,983.95,4.1,88,3.21,0.0,1011.32,90.0
2018-11-04 23:40,50.6304466666667,-96.9807666666667,11.4,13.4,124,983.91,4.0,90,3.21,0.0,1011.27,90.0
2018-11-04 23:50,50.6304466666667,-96.9807666666667,10.6,12.8,126,983.84,4.0,89,3.21,0.0,1011.20,90.0
